Weather History for Yuma MCAS, AZ

Change the Weather History Date:

Sunday, June 16, 2013

  Actual Average Record
Temperature  
Mean Temperature 91 °F 89 °F  
Max Temperature 106 °F 104 °F 119 °F (1917)
Min Temperature 75 °F 75 °F 55 °F (1907)
Degree Days  
Heating Degree Days 0 0  
Month to date heating degree days 0 0  
Since 1 June heating degree days 0 0  
Since 1 July heating degree days 705 686  
Cooling Degree Days 26 24  
Month to date cooling degree days 422 356  
Year to date cooling degree days 1483 1268  
Since 1 June cooling degree days 422 356  
Growing Degree Days 40 (Base 50)    
Moisture  
Dew Point 27 °F    
Average Humidity 15    
Maximum Humidity 27    
Minimum Humidity 3    
Precipitation  
Precipitation 0.00 in 0.00 in 0.01 in (1958)
Month to date precipitation 0.00 0.00  
Year to date precipitation 1.11 1.32  
Sea Level Pressure  
Sea Level Pressure 29.79 in    
Wind  
Wind Speed 4 mph (SW)    
Max Wind Speed 16 mph    
Max Gust Speed 18 mph    
Visibility 10 miles    
Events      
T = Trace of Precipitation, MM = Missing Value Source: NWS Daily Summary

Daily Weather History Graph

Daily Weather History Graph

Search for Another Location

Airport:

Trip Planner

Search our weather history database for the weather conditions in past years. The results will help you decide how hot, cold, wet, or windy it might be!

Date:

Astronomy

Jun. 16, 2013 Rise Set
Actual Time 5:30 AM MST 7:48 PM MST
Civil Twilight 5:01 AM MST 8:16 PM MST
Nautical Twilight 4:26 AM MST 8:51 PM MST
Astronomical Twilight 3:48 AM MST 9:29 PM MST
Moon 12:47 PM MST (6/16) 12:16 AM MST (6/16)
Length of Visible Light 15h 14m
Length of Day
14h 17m
Waxing Crescent, 51% of the Moon is Illuminated
Jun 16
Waxing Crescent
Jun 23
Full
Jun 29
Last Quarter
Jul 8
New
Jul 15
First Quarter

Hourly Weather History & Observations

Time (MST) Temp. Dew Point Humidity Pressure Visibility Wind Dir Wind Speed Gust Speed Precip Events Conditions
12:57 AM 81.0 °F 35.1 °F 19% 29.78 in 10.0 mi SSE 3.5 mph - N/A   Clear
1:57 AM 78.1 °F 36.0 °F 22% 29.77 in 10.0 mi South 4.6 mph - N/A   Clear
2:57 AM 77.0 °F 34.0 °F 21% 29.77 in 10.0 mi SW 4.6 mph - N/A   Clear
3:57 AM 75.0 °F 37.0 °F 25% 29.78 in 10.0 mi SSW 3.5 mph - N/A   Clear
4:57 AM 75.9 °F 34.0 °F 22% 29.79 in 10.0 mi SW 3.5 mph - N/A   Clear
5:57 AM 75.9 °F 30.9 °F 19% 29.81 in 10.0 mi West 3.5 mph - N/A   Clear
6:57 AM 78.1 °F 33.1 °F 19% 29.83 in 10.0 mi Calm Calm - N/A   Clear
7:57 AM 81.0 °F 30.9 °F 16% 29.85 in 10.0 mi Calm Calm - N/A   Clear
8:57 AM 87.1 °F 35.1 °F 16% 29.86 in 10.0 mi Calm Calm - N/A   Clear
9:57 AM 93.0 °F 25.0 °F 9% 29.86 in 10.0 mi Calm Calm - N/A   Clear
10:57 AM 97.0 °F 21.0 °F 6% 29.85 in 10.0 mi Variable 4.6 mph - N/A   Clear
11:57 AM 99.0 °F 16.0 °F 5% 29.84 in 10.0 mi Variable 4.6 mph - N/A   Clear
12:57 PM 102.9 °F 19.0 °F 5% 29.83 in 10.0 mi Variable 3.5 mph - N/A   Clear
1:57 PM 102.9 °F 17.1 °F 5% 29.80 in 10.0 mi WSW 5.8 mph - N/A   Clear
2:57 PM 104.0 °F 15.1 °F 4% 29.78 in 10.0 mi West 6.9 mph - N/A   Partly Cloudy
3:57 PM 105.1 °F 18.0 °F 4% 29.76 in 10.0 mi West 5.8 mph - N/A   Clear
4:57 PM 105.1 °F 15.1 °F 4% 29.75 in 10.0 mi West 3.5 mph - N/A   Clear
5:57 PM 104.0 °F 14.0 °F 4% 29.74 in 10.0 mi NW 5.8 mph - N/A   Clear
6:57 PM 102.0 °F 9.0 °F 4% 29.74 in 10.0 mi West 5.8 mph - N/A   Clear
7:57 PM 98.1 °F 17.1 °F 5% 29.74 in 10.0 mi WNW 3.5 mph - N/A   Clear
8:57 PM 93.9 °F 21.0 °F 7% 29.75 in 10.0 mi Calm Calm - N/A   Clear
9:57 PM 89.1 °F 44.1 °F 21% 29.77 in 10.0 mi South 15.0 mph 18.4 mph N/A   Clear
10:57 PM 84.9 °F 46.9 °F 27% 29.78 in 10.0 mi SSW 8.1 mph - N/A   Clear
11:57 PM 84.0 °F 48.0 °F 28% 29.79 in 10.0 mi SSW 3.5 mph - N/A   Clear